When you browse on this site, cookies collect data to enhance your experience and personalize the content and advertising you see.
Visit our Privacy Policy to learn more. By continuing to use the site, you agree to this use of cookies and data.
  • în România
  • Lista ţărilor
  • Pe 7 zile
  • Temperatura apei
  • Meteo pe hartă
  • Widget-uri
  • user-avatar
    Intrare

    Meteo pe oră la Semnan

    Astăzi, 22 Februarie, Sâmbătă

    Timp Temperatura Precipitaţii Vânt Presiune Umiditate
    00:00 +11°C° 0 mm 1 m/s 680 mmHg 64%
    01:00 +10°C° 0 mm 1 m/s 680 mmHg 65%
    02:00 +10°C° 0 mm 1 m/s 680 mmHg 66%
    03:00 +9°C° 0 mm 2 m/s 680 mmHg 66%
    04:00 +9°C° 0 mm 2 m/s 680 mmHg 67%
    05:00 +8°C° 0 mm 2 m/s 680 mmHg 68%
    06:00 +8°C° 0 mm 2 m/s 680 mmHg 69%
    07:00 +8°C° 0 mm 2 m/s 680 mmHg 70%
    08:00 +9°C° 0 mm 2 m/s 681 mmHg 64%
    09:00 +12°C° 0 mm 2 m/s 681 mmHg 58%
    10:00 +13°C° 0 mm 2 m/s 682 mmHg 52%
    11:00 +14°C° 0 mm 2 m/s 682 mmHg 49%
    12:00 +15°C° 0 mm 2 m/s 682 mmHg 45%
    13:00 +16°C° 0 mm 1 m/s 682 mmHg 42%
    14:00 +16°C° 0 mm 1 m/s 681 mmHg 41%
    15:00 +18°C° 0 mm 1 m/s 681 mmHg 41%
    16:00 +18°C° 0 mm 1 m/s 681 mmHg 40%
    17:00 +16°C° 0 mm 1 m/s 681 mmHg 45%
    18:00 +15°C° 0 mm 1 m/s 681 mmHg 49%
    19:00 +14°C° 0 mm 1 m/s 681 mmHg 54%
    20:00 +14°C° 0 mm 1 m/s 681 mmHg 55%
    21:00 +13°C° 0 mm 1 m/s 681 mmHg 55%
    22:00 +13°C° 0 mm 1 m/s 681 mmHg 56%
    23:00 +13°C° 0 mm 1 m/s 680 mmHg 56%

    Mâine, 23 Februarie, Duminică

    Timp Temperatura Precipitaţii Vânt Presiune Umiditate
    00:00 +12°C° 0 mm 2 m/s 680 mmHg 56%
    01:00 +12°C° 0 mm 2 m/s 680 mmHg 57%
    02:00 +12°C° 0 mm 2 m/s 680 mmHg 57%
    03:00 +10°C° 0 mm 2 m/s 680 mmHg 58%
    04:00 +10°C° 0 mm 2 m/s 680 mmHg 59%
    05:00 +9°C° 0 mm 2 m/s 680 mmHg 59%
    06:00 +9°C° 0 mm 2 m/s 680 mmHg 60%
    07:00 +9°C° 0 mm 2 m/s 680 mmHg 61%
    08:00 +10°C° 0 mm 2 m/s 680 mmHg 56%
    09:00 +12°C° 0 mm 3 m/s 681 mmHg 50%
    10:00 +13°C° 0 mm 3 m/s 682 mmHg 44%
    11:00 +14°C° 0 mm 4 m/s 682 mmHg 40%
    12:00 +16°C° 0 mm 5 m/s 682 mmHg 35%
    13:00 +17°C° 0 mm 6 m/s 682 mmHg 31%
    14:00 +17°C° 0 mm 6 m/s 682 mmHg 29%
    15:00 +17°C° 0 mm 7 m/s 681 mmHg 28%
    16:00 +18°C° 0 mm 7 m/s 681 mmHg 26%
    17:00 +16°C° 0 mm 6 m/s 681 mmHg 30%
    18:00 +15°C° 0 mm 5 m/s 681 mmHg 34%
    19:00 +14°C° 0 mm 4 m/s 681 mmHg 38%
    20:00 +14°C° 0 mm 4 m/s 681 mmHg 40%
    21:00 +13°C° 0 mm 3 m/s 681 mmHg 42%
    22:00 +13°C° 0 mm 2 m/s 680 mmHg 44%
    23:00 +13°C° 0 mm 2 m/s 680 mmHg 46%

    Poimâine, 24 Februarie, Luni

    Timp Temperatura Precipitaţii Vânt Presiune Umiditate
    00:00 +12°C° 0 mm 2 m/s 680 mmHg 47%
    01:00 +12°C° 0 mm 2 m/s 680 mmHg 48%
    02:00 +11°C° 0 mm 1 m/s 679 mmHg 50%
    03:00 +11°C° 0 mm 1 m/s 679 mmHg 51%
    04:00 +10°C° 0 mm 1 m/s 678 mmHg 53%
    05:00 +10°C° 0 mm 1 m/s 678 mmHg 54%
    06:00 +10°C° 0 mm 1 m/s 678 mmHg 55%
    07:00 +10°C° 0 mm 1 m/s 678 mmHg 55%
    08:00 +11°C° 0 mm 1 m/s 679 mmHg 50%
    09:00 +13°C° 0 mm 1 m/s 680 mmHg 45%
    10:00 +14°C° 0 mm 1 m/s 680 mmHg 40%
    11:00 +16°C° 0 mm 3 m/s 680 mmHg 37%
    12:00 +17°C° 0 mm 4 m/s 680 mmHg 35%
    13:00 +17°C° 0 mm 5 m/s 679 mmHg 33%
    14:00 +19°C° 0 mm 6 m/s 679 mmHg 32%
    15:00 +18°C° 0 mm 7 m/s 679 mmHg 32%
    16:00 +20°C° 0 mm 8 m/s 678 mmHg 31%
    17:00 +18°C° 0 mm 7 m/s 678 mmHg 35%
    18:00 +17°C° 0 mm 5 m/s 678 mmHg 39%
    19:00 +15°C° 0 mm 4 m/s 678 mmHg 43%
    20:00 +16°C° 0 mm 3 m/s 678 mmHg 45%
    21:00 +14°C° 0 mm 3 m/s 677 mmHg 47%
    22:00 +15°C° 0 mm 2 m/s 677 mmHg 48%
    23:00 +14°C° 0 mm 2 m/s 676 mmHg 50%

    25 Februarie, Marţi

    Timp Temperatura Precipitaţii Vânt Presiune Umiditate
    00:00 +14°C° 0 mm 1 m/s 676 mmHg 52%
    01:00 +13°C° 0 mm 1 m/s 675 mmHg 54%
    02:00 +13°C° 0 mm 1 m/s 675 mmHg 54%
    03:00 +13°C° 0 mm 1 m/s 674 mmHg 54%
    04:00 +13°C° 0 mm 1 m/s 674 mmHg 54%
    05:00 +13°C° 0 mm 1 m/s 674 mmHg 54%
    06:00 +12°C° 0 mm 1 m/s 674 mmHg 55%
    07:00 +12°C° 0 mm 1 m/s 674 mmHg 56%
    08:00 +13°C° 0.1 mm 1 m/s 675 mmHg 57%
    09:00 +14°C° 0.1 mm 2 m/s 675 mmHg 58%
    10:00 +13°C° 0.1 mm 3 m/s 676 mmHg 59%
    11:00 +14°C° 0.6 mm 2 m/s 676 mmHg 66%
    12:00 +14°C° 0.6 mm 2 m/s 675 mmHg 73%
    13:00 +14°C° 0.6 mm 1 m/s 675 mmHg 79%
    14:00 +13°C° 0.9 mm 1 m/s 675 mmHg 83%
    15:00 +13°C° 0.9 mm 1 m/s 674 mmHg 88%
    16:00 +12°C° 0.9 mm 1 m/s 673 mmHg 92%
    17:00 +12°C° 1 mm 2 m/s 673 mmHg 92%
    18:00 +12°C° 1 mm 2 m/s 673 mmHg 92%
    19:00 +13°C° 1 mm 2 m/s 673 mmHg 92%
    20:00 +13°C° 0.1 mm 2 m/s 673 mmHg 90%
    21:00 +13°C° 0.1 mm 2 m/s 673 mmHg 89%
    22:00 +13°C° 0.1 mm 2 m/s 673 mmHg 87%
    23:00 +12°C° 0.6 mm 3 m/s 672 mmHg 87%

    26 Februarie, Miercuri

    Timp Temperatura Precipitaţii Vânt Presiune Umiditate
    00:00 +12°C° 0.6 mm 3 m/s 671 mmHg 88%
    01:00 +12°C° 0.6 mm 4 m/s 670 mmHg 88%
    02:00 +12°C° 0 mm 3 m/s 670 mmHg 85%
    03:00 +12°C° 0 mm 3 m/s 670 mmHg 82%
    04:00 +13°C° 0 mm 3 m/s 669 mmHg 79%
    05:00 +12°C° 0.2 mm 4 m/s 669 mmHg 78%
    06:00 +12°C° 0.2 mm 5 m/s 669 mmHg 76%
    07:00 +11°C° 0.2 mm 6 m/s 669 mmHg 75%
    08:00 +8°C° 3.3 mm 7 m/s 670 mmHg 74%
    09:00 +5°C° 3.3 mm 9 m/s 671 mmHg 73%
    10:00 +1°C° 3.3 mm 10 m/s 672 mmHg 72%
    11:00 +4°C° 0.1 mm 8 m/s 673 mmHg 66%
    12:00 +5°C° 0.1 mm 6 m/s 674 mmHg 60%
    13:00 +7°C° 0.1 mm 4 m/s 675 mmHg 55%
    14:00 +7°C° 0 mm 5 m/s 675 mmHg 51%
    15:00 +7°C° 0 mm 5 m/s 676 mmHg 46%
    16:00 +7°C° 0 mm 6 m/s 676 mmHg 42%
    17:00 +4°C° 0 mm 6 m/s 677 mmHg 44%
    18:00 +3°C° 0 mm 5 m/s 677 mmHg 45%
    19:00 +2°C° 0 mm 5 m/s 678 mmHg 47%
    20:00 +3°C° 0 mm 4 m/s 679 mmHg 48%
    21:00 +1°C° 0 mm 4 m/s 679 mmHg 49%
    22:00 +2°C° 0 mm 3 m/s 680 mmHg 50%
    23:00 +2°C° 0 mm 3 m/s 680 mmHg 50%

    27 Februarie, Joi

    Timp Temperatura Precipitaţii Vânt Presiune Umiditate
    00:00 +2°C° 0 mm 3 m/s 680 mmHg 51%
    01:00 +1°C° 0 mm 3 m/s 680 mmHg 51%
    02:00 +2°C° 0 mm 2 m/s 680 mmHg 51%
    03:00 +2°C° 0 mm 2 m/s 680 mmHg 52%
    04:00 +2°C° 0 mm 2 m/s 680 mmHg 52%
    05:00 +2°C° 0 mm 2 m/s 680 mmHg 55%
    06:00 +2°C° 0 mm 2 m/s 681 mmHg 59%
    07:00 +3°C° 0 mm 1 m/s 681 mmHg 63%
    08:00 +4°C° 0 mm 1 m/s 681 mmHg 61%
    09:00 +4°C° 0 mm 2 m/s 681 mmHg 59%
    10:00 +4°C° 0 mm 2 m/s 682 mmHg 57%
    11:00 +6°C° 0 mm 1 m/s 681 mmHg 55%
    12:00 +7°C° 0 mm 1 m/s 681 mmHg 52%
    13:00 +8°C° 0 mm 1 m/s 681 mmHg 50%
    14:00 +8°C° 0 mm 1 m/s 680 mmHg 48%
    15:00 +9°C° 0 mm 1 m/s 680 mmHg 46%
    16:00 +9°C° 0 mm 1 m/s 680 mmHg 45%
    17:00 +9°C° 0 mm 1 m/s 679 mmHg 47%
    18:00 +9°C° 0 mm 1 m/s 679 mmHg 49%
    19:00 +7°C° 0 mm 0 m/s 679 mmHg 52%
    20:00 +7°C° 0 mm 0 m/s 679 mmHg 53%
    21:00 +8°C° 0 mm 1 m/s 679 mmHg 53%
    22:00 +7°C° 0 mm 1 m/s 679 mmHg 54%
    23:00 +7°C° 0 mm 1 m/s 679 mmHg 55%
    Arată mai mult